Location: Escondida
(34.1015°N, 106.8964°W)
Time: 14:39:05
(UTC+00:00)

ISS - Pass Details

Date: 17 February 2026
Orbit: 415 x 426 km, 51.6° (Epoch: 13 March)

Event Time Altitude Azimuth Distance (km) Brightness Sun altitude
Exits shadow 12:22:56 13° 353° (N) 1,344 -1.3 -18.7°
Drops below altitude 10° 12:23:43 10° 6° (N) 1,492 -0.9 -18.5°
Sets 12:26:33 0° 32° (NNE) 2,356 0.5 -17.9°
